START_TIME,STEP,MOV.,A46,t_acc.,A13,t_acc.,M47,t_acc.,A17,t_acc.,A28,t_acc.,M38,t_acc.
1981-08-28 21:00:26.180 ,2,0,,0,3.,4.8,0.,4.8,,0,0.,4.8,0.,4.8
1981-08-28 21:00:30.980 ,2,0,,0,0.,4.8,0.,4.8,,0,0.,4.8,0.,4.8
1981-08-28 21:00:35.780 ,2,0,,0,0.,4.8,0.,4.8,,0,0.,4.8,0.,4.8
1981-08-28 21:00:40.580 ,2,0,,0,0.,4.8,0.,4.8,,0,0.,4.8,0.,4.8
1981-08-28 21:00:45.380 ,2,0,,0,0.,4.8,0.,4.8,,0,0.,4.8,0.,4.8
1981-08-28 21:00:50.180 ,1,0,,0,0.,4.8,0.,4.8,,0,0.,4.8,0.,4.8
1981-08-28 21:00:54.980 ,1,0,,0,0.,4.8,0.,4.8,,0,0.,4.8,0.,4.8
1981-08-28 21:00:59.780 ,1,0,,0,0.,4.8,0.,4.8,,0,0.,4.8,0.,4.8
1981-08-28 21:01:04.580 ,1,0,,0,0.,4.8,0.,4.8,,0,0.,4.8,0.,4.8
1981-08-28 21:01:09.380 ,1,0,,0,0.,4.8,0.,4.8,,0,0.,4.8,0.,4.8
1981-08-28 21:01:14.180 ,1,0,,0,0.,4.8,0.,4.8,,0,0.,4.8,0.,4.8
1981-08-28 21:01:18.980 ,1,0,,0,0.,4.8,0.,4.8,,0,0.,4.8,0.,4.8
1981-08-28 21:01:23.780 ,1,0,,0,1.,4.8,0.,4.8,,0,0.,4.8,0.,4.8
1981-08-28 21:01:28.580 ,1,0,,0,0.,4.8,0.,4.8,,0,0.,4.8,0.,4.8
1981-08-28 21:01:33.380 ,1,0,,0,0.,4.8,0.,4.8,,0,0.,4.8,0.,4.8
1981-08-28 21:01:38.180 ,0,0,,0,0.,4.8,0.,4.8,,0,0.,4.8,0.,4.8
1981-08-28 21:01:42.980 ,0,0,,0,0.,4.8,0.,4.8,,0,0.,4.8,0.,4.8
1981-08-28 21:01:47.780 ,0,0,,0,0.,4.8,0.,4.8,,0,0.,4.8,0.,4.8
1981-08-28 21:01:52.580 ,0,0,,0,1.,4.8,0.,4.8,,0,0.,4.8,0.,4.8
1981-08-28 21:01:57.380 ,0,0,,0,0.,4.8,0.,4.8,,0,0.,4.8,0.,4.8
1981-08-28 21:02:02.180 ,0,0,,0,1.,4.8,0.,4.8,,0,0.,4.8,0.,4.8
1981-08-28 21:02:06.980 ,0,0,,0,0.,4.8,0.,4.8,,0,0.,4.8,0.,4.8
1981-08-28 21:02:11.780 ,0,0,,0,0.,4.8,0.,4.8,,0,0.,4.8,0.,4.8
1981-08-28 21:02:16.580 ,0,0,,0,0.,4.8,0.,4.8,,0,0.,4.8,0.,4.8
1981-08-28 21:02:21.380 ,0,0,,0,0.,4.8,0.,4.8,,0,0.,4.8,0.,4.8
1981-08-28 21:02:26.180 ,0,0,,0,0.,4.8,0.,4.8,,0,0.,4.8,0.,4.8
1981-08-28 21:02:30.980 ,0,0,,0,0.,4.8,0.,4.8,,0,0.,4.8,0.,4.8
1981-08-28 21:02:35.780 ,0,0,,0,0.,4.8,0.,4.8,,0,0.,4.8,0.,4.8
1981-08-28 21:02:40.580 ,0,0,,0,1.,4.8,0.,4.8,,0,0.,4.8,0.,4.8
1981-08-28 21:02:45.380 ,0,0,,0,1.,4.8,0.,4.8,,0,0.,4.8,0.,4.8
1981-08-28 21:02:50.180 ,0,0,,0,0.,4.8,0.,4.8,,0,0.,4.8,0.,4.8
1981-08-28 21:02:54.980 ,0,0,,0,1.,4.8,0.,4.8,,0,0.,4.8,0.,4.8
1981-08-28 21:02:59.780 ,0,0,,0,0.,4.8,0.,4.8,,0,0.,4.8,0.,4.8
1981-08-28 21:03:04.580 ,0,0,,0,0.,4.8,0.,4.8,,0,0.,4.8,0.,4.8
1981-08-28 21:03:09.380 ,0,0,,0,0.,4.8,0.,4.8,,0,0.,4.8,0.,4.8
1981-08-28 21:03:14.180 ,1,0,,0,0.,4.8,0.,4.8,,0,0.,4.8,0.,4.8
1981-08-28 21:03:18.980 ,1,0,,0,0.,4.8,0.,4.8,,0,0.,4.8,0.,4.8
1981-08-28 21:03:23.780 ,1,0,,0,0.,4.8,0.,4.8,,0,0.,4.8,0.,4.8
1981-08-28 21:03:28.580 ,1,0,,0,0.,4.8,0.,4.8,,0,0.,4.8,0.,4.8
1981-08-28 21:03:33.380 ,1,0,,0,1.,4.8,0.,4.8,,0,0.,4.8,0.,4.8
1981-08-28 21:03:38.180 ,1,0,,0,1.,4.8,0.,4.8,,0,0.,4.8,0.,4.8
1981-08-28 21:03:42.980 ,1,0,,0,0.,4.8,0.,4.8,,0,0.,4.8,0.,4.8
1981-08-28 21:03:47.780 ,1,0,,0,1.,4.8,0.,4.8,,0,0.,4.8,0.,4.8
1981-08-28 21:03:52.580 ,1,0,,0,0.,4.8,0.,4.8,,0,0.,4.8,0.,4.8
1981-08-28 21:03:57.380 ,1,0,,0,0.,4.8,0.,4.8,,0,0.,4.8,0.,4.8
1981-08-28 21:04:02.180 ,2,0,,0,0.,4.8,0.,4.8,,0,0.,4.8,0.,4.8
1981-08-28 21:04:06.980 ,2,0,,0,0.,4.8,0.,4.8,,0,0.,4.8,0.,4.8
1981-08-28 21:04:11.780 ,2,0,,0,1.,4.8,0.,4.8,,0,0.,4.8,0.,4.8
1981-08-28 21:04:16.580 ,2,0,,0,0.,4.8,0.,4.8,,0,0.,4.8,0.,4.8
1981-08-28 21:04:21.380 ,2,0,,0,1.,4.8,0.,4.8,,0,0.,4.8,0.,4.8
1981-08-28 21:04:26.180 ,2,0,,0,3.,4.8,0.,4.8,,0,0.,4.8,0.,4.8
1981-08-28 21:04:30.980 ,2,0,,0,0.,4.8,0.,4.8,,0,0.,4.8,0.,4.8
1981-08-28 21:04:35.780 ,2,0,,0,1.,4.8,0.,4.8,,0,0.,4.8,0.,4.8
1981-08-28 21:04:40.580 ,2,0,,0,0.,4.8,0.,4.8,,0,0.,4.8,0.,4.8
1981-08-28 21:04:45.380 ,2,0,,0,0.,4.8,0.,4.8,,0,0.,4.8,0.,4.8
1981-08-28 21:04:50.180 ,3,0,,0,0.,4.8,0.,4.8,,0,0.,4.8,0.,4.8
1981-08-28 21:04:54.980 ,3,0,,0,0.,4.8,0.,4.8,,0,0.,4.8,0.,4.8
1981-08-28 21:04:59.780 ,3,0,,0,0.,4.8,0.,4.8,,0,0.,4.8,0.,4.8
1981-08-28 21:05:04.580 ,3,0,,0,2.,4.8,0.,4.8,,0,0.,4.8,0.,4.8
1981-08-28 21:05:09.380 ,3,0,,0,0.,4.8,0.,4.8,,0,0.,4.8,0.,4.8
1981-08-28 21:05:14.180 ,3,0,,0,1.,4.8,0.,4.8,,0,0.,4.8,0.,4.8
1981-08-28 21:05:18.980 ,3,0,,0,0.,4.8,0.,4.8,,0,0.,4.8,0.,4.8
1981-08-28 21:05:23.780 ,3,0,,0,2.,4.8,0.,4.8,,0,0.,4.8,0.,4.8
1981-08-28 21:05:28.580 ,3,0,,0,0.,4.8,0.,4.8,,0,0.,4.8,0.,4.8
1981-08-28 21:05:33.380 ,3,0,,0,0.,4.8,0.,4.8,,0,0.,4.8,0.,4.8
1981-08-28 21:05:38.180 ,4,0,,0,0.,4.8,0.,4.8,,0,0.,4.8,0.,4.8
1981-08-28 21:05:42.980 ,4,0,,0,0.,4.8,0.,4.8,,0,0.,4.8,0.,4.8
1981-08-28 21:05:47.780 ,4,0,,0,1.,4.8,0.,4.8,,0,0.,4.8,0.,4.8
1981-08-28 21:05:52.580 ,4,0,,0,0.,4.8,0.,4.8,,0,0.,4.8,0.,4.8
1981-08-28 21:05:57.380 ,4,0,,0,0.,4.8,0.,4.8,,0,0.,4.8,0.,4.8
1981-08-28 21:06:02.180 ,4,0,,0,0.,4.8,0.,4.8,,0,0.,4.8,0.,4.8
1981-08-28 21:06:06.980 ,4,0,,0,0.,4.8,0.,4.8,,0,0.,4.8,0.,4.8
1981-08-28 21:06:11.780 ,4,0,,0,0.,4.8,0.,4.8,,0,0.,4.8,0.,4.8
1981-08-28 21:06:16.580 ,4,0,,0,0.,4.8,0.,4.8,,0,0.,4.8,0.,4.8
1981-08-28 21:06:21.380 ,4,0,,0,0.,4.8,0.,4.8,,0,0.,4.8,0.,4.8
1981-08-28 21:06:26.180 ,5,0,,0,0.,4.8,0.,4.8,,0,0.,4.8,0.,4.8
1981-08-28 21:06:30.980 ,5,0,,0,0.,4.8,0.,4.8,,0,0.,4.8,0.,4.8
1981-08-28 21:06:35.780 ,5,0,,0,0.,4.8,0.,4.8,,0,0.,4.8,0.,4.8
1981-08-28 21:06:40.580 ,5,0,,0,1.,4.8,0.,4.8,,0,0.,4.8,0.,4.8
1981-08-28 21:06:45.380 ,5,0,,0,1.,4.8,0.,4.8,,0,0.,4.8,0.,4.8
1981-08-28 21:06:50.180 ,5,0,,0,0.,4.8,0.,4.8,,0,0.,4.8,0.,4.8
1981-08-28 21:06:54.980 ,5,0,,0,1.,4.8,0.,4.8,,0,0.,4.8,0.,4.8
1981-08-28 21:06:59.780 ,5,0,,0,1.,4.8,0.,4.8,,0,0.,4.8,0.,4.8
1981-08-28 21:07:04.580 ,5,0,,0,0.,4.8,0.,4.8,,0,0.,4.8,0.,4.8
1981-08-28 21:07:09.380 ,5,0,,0,0.,4.8,0.,4.8,,0,0.,4.8,0.,4.8
1981-08-28 21:07:14.180 ,6,0,,0,0.,4.8,0.,4.8,,0,0.,4.8,0.,4.8
1981-08-28 21:07:18.980 ,6,0,,0,0.,4.8,0.,4.8,,0,1.,4.8,0.,4.8
1981-08-28 21:07:23.780 ,6,0,,0,0.,4.8,0.,4.8,,0,0.,4.8,0.,4.8
1981-08-28 21:07:28.580 ,6,0,,0,1.,4.8,0.,4.8,,0,0.,4.8,0.,4.8
1981-08-28 21:07:33.380 ,6,0,,0,1.,4.8,0.,4.8,,0,1.,4.8,0.,4.8
1981-08-28 21:07:38.180 ,6,0,,0,0.,4.8,0.,4.8,,0,0.,4.8,0.,4.8
1981-08-28 21:07:42.980 ,6,0,,0,2.,4.8,0.,4.8,,0,0.,4.8,0.,4.8
1981-08-28 21:07:47.780 ,6,0,,0,1.,4.8,0.,4.8,,0,0.,4.8,0.,4.8
1981-08-28 21:07:52.580 ,6,0,,0,0.,4.8,0.,4.8,,0,0.,4.8,0.,4.8
1981-08-28 21:07:57.380 ,6,0,,0,0.,4.8,1.,4.8,,0,0.,4.8,0.,4.8
1981-08-28 21:08:02.180 ,7,0,,0,0.,4.8,0.,4.8,,0,0.,4.8,0.,4.8
1981-08-28 21:08:06.980 ,7,0,,0,0.,4.8,0.,4.8,,0,0.,4.8,0.,4.8
1981-08-28 21:08:11.780 ,7,0,,0,1.,4.8,0.,4.8,,0,0.,4.8,0.,4.8
1981-08-28 21:08:16.580 ,7,0,,0,11.,4.8,0.,4.8,,0,0.,4.8,0.,4.8
1981-08-28 21:08:21.380 ,7,0,,0,12.,4.8,0.,4.8,,0,0.,4.8,0.,4.8
1981-08-28 21:08:26.180 ,7,0,,0,6.,4.8,0.,4.8,,0,0.,4.8,0.,4.8
1981-08-28 21:08:30.980 ,7,0,,0,7.,4.8,0.,4.8,,0,0.,4.8,0.,4.8
1981-08-28 21:08:35.780 ,7,0,,0,4.,4.8,0.,4.8,,0,0.,4.8,0.,4.8
1981-08-28 21:08:40.580 ,7,0,,0,0.,4.8,0.,4.8,,0,0.,4.8,0.,4.8
1981-08-28 21:08:45.380 ,7,0,,0,0.,4.8,0.,4.8,,0,0.,4.8,0.,4.8
1981-08-28 21:08:50.180 ,7,0,,0,0.,4.8,0.,4.8,,0,0.,4.8,0.,4.8
1981-08-28 21:08:54.980 ,7,0,,0,0.,4.8,0.,4.8,,0,0.,4.8,0.,4.8
1981-08-28 21:08:59.780 ,7,0,,0,2.,4.8,0.,4.8,,0,0.,4.8,0.,4.8
1981-08-28 21:09:04.580 ,7,0,,0,11.,4.8,0.,4.8,,0,0.,4.8,0.,4.8
1981-08-28 21:09:09.380 ,7,0,,0,10.,4.8,0.,4.8,,0,0.,4.8,0.,4.8
1981-08-28 21:09:14.180 ,6,0,,0,6.,4.8,0.,4.8,,0,0.,4.8,0.,4.8
1981-08-28 21:09:18.980 ,6,0,,0,9.,4.8,0.,4.8,,0,0.,4.8,0.,4.8
1981-08-28 21:09:23.780 ,6,0,,0,0.,4.8,0.,4.8,,0,0.,4.8,0.,4.8
1981-08-28 21:09:28.580 ,6,0,,0,0.,4.8,0.,4.8,,0,0.,4.8,0.,4.8
1981-08-28 21:09:33.380 ,6,0,,0,0.,4.8,0.,4.8,,0,0.,4.8,0.,4.8
1981-08-28 21:09:38.180 ,5,0,,0,0.,4.8,0.,4.8,,0,0.,4.8,0.,4.8
1981-08-28 21:09:42.980 ,5,0,,0,0.,4.8,0.,4.8,,0,0.,4.8,0.,4.8
1981-08-28 21:09:47.780 ,5,0,,0,0.,4.8,0.,4.8,,0,0.,4.8,0.,4.8
1981-08-28 21:09:52.580 ,5,0,,0,2.,4.8,0.,4.8,,0,0.,4.8,0.,4.8
1981-08-28 21:09:57.380 ,5,0,,0,1.,4.8,0.,4.8,,0,0.,4.8,0.,4.8
1981-08-28 21:10:02.180 ,4,0,,0,0.,4.8,0.,4.8,,0,0.,4.8,0.,4.8
1981-08-28 21:10:06.980 ,4,0,,0,1.,4.8,0.,4.8,,0,0.,4.8,0.,4.8
1981-08-28 21:10:11.780 ,4,0,,0,1.,4.8,0.,4.8,,0,0.,4.8,0.,4.8
1981-08-28 21:10:16.580 ,4,0,,0,0.,4.8,0.,4.8,,0,0.,4.8,0.,4.8
1981-08-28 21:10:21.380 ,4,0,,0,0.,4.8,0.,4.8,,0,0.,4.8,0.,4.8
1981-08-28 21:10:26.170 ,3,0,,0,0.,4.8,0.,4.8,,0,0.,4.8,0.,4.8
1981-08-28 21:10:30.970 ,3,0,,0,0.,4.8,0.,4.8,,0,0.,4.8,0.,4.8
1981-08-28 21:10:35.770 ,3,0,,0,0.,4.8,0.,4.8,,0,0.,4.8,0.,4.8
1981-08-28 21:10:40.580 ,3,0,,0,1.,4.8,0.,4.8,,0,0.,4.8,0.,4.8
1981-08-28 21:10:45.380 ,3,0,,0,0.,4.8,0.,4.8,,0,0.,4.8,0.,4.8
1981-08-28 21:10:50.170 ,2,0,,0,0.,4.8,0.,4.8,,0,0.,4.8,0.,4.8
1981-08-28 21:10:54.970 ,2,0,,0,1.,4.8,0.,4.8,,0,0.,4.8,0.,4.8
1981-08-28 21:10:59.770 ,2,0,,0,1.,4.8,0.,4.8,,0,0.,4.8,0.,4.8
1981-08-28 21:11:04.580 ,2,0,,0,0.,4.8,0.,4.8,,0,0.,4.8,0.,4.8
1981-08-28 21:11:09.380 ,2,0,,0,0.,4.8,0.,4.8,,0,0.,4.8,0.,4.8
1981-08-28 21:11:14.170 ,1,0,,0,0.,4.8,0.,4.8,,0,0.,4.8,0.,4.8
1981-08-28 21:11:18.970 ,1,0,,0,0.,4.8,0.,4.8,,0,0.,4.8,0.,4.8
1981-08-28 21:11:23.770 ,1,0,,0,0.,4.8,0.,4.8,,0,0.,4.8,0.,4.8
1981-08-28 21:11:28.580 ,1,0,,0,1.,4.8,0.,4.8,,0,0.,4.8,0.,4.8
1981-08-28 21:11:33.380 ,1,0,,0,0.,4.8,0.,4.8,,0,0.,4.8,0.,4.8
1981-08-28 21:11:38.170 ,0,0,,0,1.,4.8,0.,4.8,,0,0.,4.8,0.,4.8
1981-08-28 21:11:42.970 ,0,0,,0,0.,4.8,0.,4.8,,0,0.,4.8,0.,4.8
1981-08-28 21:11:47.780 ,0,0,,0,0.,4.8,0.,4.8,,0,0.,4.8,0.,4.8
1981-08-28 21:11:52.580 ,0,0,,0,0.,4.8,0.,4.8,,0,0.,4.8,0.,4.8
1981-08-28 21:11:57.380 ,0,0,,0,0.,4.8,0.,4.8,,0,0.,4.8,0.,4.8
1981-08-28 21:12:02.170 ,0,0,,0,0.,4.8,0.,4.8,,0,0.,4.8,0.,4.8
1981-08-28 21:12:06.970 ,0,0,,0,0.,4.8,0.,4.8,,0,0.,4.8,0.,4.8
1981-08-28 21:12:11.780 ,0,0,,0,0.,4.8,0.,4.8,,0,0.,4.8,0.,4.8
1981-08-28 21:12:16.580 ,0,0,,0,0.,4.8,0.,4.8,,0,0.,4.8,0.,4.8
1981-08-28 21:12:21.380 ,0,0,,0,1.,4.8,0.,4.8,,0,0.,4.8,0.,4.8
1981-08-28 21:12:26.170 ,1,0,,0,1.,4.8,0.,4.8,,0,0.,4.8,0.,4.8
1981-08-28 21:12:30.970 ,1,0,,0,1.,4.8,0.,4.8,,0,0.,4.8,0.,4.8
1981-08-28 21:12:35.770 ,1,0,,0,0.,4.8,0.,4.8,,0,0.,4.8,0.,4.8
1981-08-28 21:12:40.580 ,1,0,,0,0.,4.8,0.,4.8,,0,0.,4.8,0.,4.8
1981-08-28 21:12:45.380 ,1,0,,0,0.,4.8,0.,4.8,,0,0.,4.8,0.,4.8
1981-08-28 21:12:50.170 ,2,0,,0,0.,4.8,0.,4.8,,0,0.,4.8,0.,4.8
1981-08-28 21:12:54.970 ,2,0,,0,0.,4.8,0.,4.8,,0,0.,4.8,0.,4.8
1981-08-28 21:12:59.770 ,2,0,,0,0.,4.8,0.,4.8,,0,0.,4.8,0.,4.8
1981-08-28 21:13:04.580 ,2,0,,0,0.,4.8,0.,4.8,,0,0.,4.8,0.,4.8
1981-08-28 21:13:09.380 ,2,0,,0,1.,4.8,0.,4.8,,0,0.,4.8,0.,4.8
1981-08-28 21:13:14.170 ,3,0,,0,0.,4.8,0.,4.8,,0,0.,4.8,0.,4.8
1981-08-28 21:13:18.970 ,3,0,,0,1.,4.8,0.,4.8,,0,0.,4.8,0.,4.8
1981-08-28 21:13:23.770 ,3,0,,0,0.,4.8,0.,4.8,,0,0.,4.8,0.,4.8
1981-08-28 21:13:28.580 ,3,0,,0,0.,4.8,0.,4.8,,0,0.,4.8,0.,4.8
1981-08-28 21:13:33.380 ,3,0,,0,0.,4.8,0.,4.8,,0,0.,4.8,0.,4.8
1981-08-28 21:13:38.170 ,4,0,,0,0.,4.8,0.,4.8,,0,0.,4.8,0.,4.8
1981-08-28 21:13:42.970 ,4,0,,0,0.,4.8,0.,4.8,,0,0.,4.8,0.,4.8
1981-08-28 21:13:47.780 ,4,0,,0,0.,4.8,0.,4.8,,0,0.,4.8,0.,4.8
1981-08-28 21:13:52.580 ,4,0,,0,0.,4.8,0.,4.8,,0,0.,4.8,0.,4.8
1981-08-28 21:13:57.380 ,4,0,,0,2.,4.8,0.,4.8,,0,0.,4.8,0.,4.8
1981-08-28 21:14:02.170 ,5,0,,0,1.,4.8,0.,4.8,,0,0.,4.8,0.,4.8
1981-08-28 21:14:06.970 ,5,0,,0,1.,4.8,0.,4.8,,0,0.,4.8,0.,4.8
1981-08-28 21:14:11.780 ,5,0,,0,0.,4.8,0.,4.8,,0,0.,4.8,0.,4.8
1981-08-28 21:14:16.580 ,5,0,,0,0.,4.8,0.,4.8,,0,0.,4.8,0.,4.8
1981-08-28 21:14:21.380 ,5,0,,0,0.,4.8,0.,4.8,,0,0.,4.8,0.,4.8
1981-08-28 21:14:26.170 ,6,0,,0,0.,4.8,0.,4.8,,0,0.,4.8,0.,4.8
1981-08-28 21:14:30.970 ,6,0,,0,0.,4.8,0.,4.8,,0,0.,4.8,0.,4.8
1981-08-28 21:14:35.770 ,6,0,,0,2.,4.8,0.,4.8,,0,0.,4.8,0.,4.8
1981-08-28 21:14:40.580 ,6,0,,0,0.,4.8,0.,4.8,,0,0.,4.8,0.,4.8
1981-08-28 21:14:45.380 ,6,0,,0,1.,4.8,0.,4.8,,0,0.,4.8,0.,4.8
1981-08-28 21:14:50.170 ,7,0,,0,1.,4.8,0.,4.8,,0,0.,4.8,0.,4.8
1981-08-28 21:14:54.970 ,7,0,,0,5.,4.8,0.,4.8,,0,0.,4.8,0.,4.8
1981-08-28 21:14:59.770 ,7,0,,0,12.,4.8,0.,4.8,,0,0.,4.8,0.,4.8
1981-08-28 21:15:04.580 ,7,0,,0,0.,4.8,0.,4.8,,0,0.,4.8,0.,4.8
1981-08-28 21:15:09.380 ,7,0,,0,0.,4.8,0.,4.8,,0,0.,4.8,0.,4.8
1981-08-28 21:15:14.170 ,7,0,,0,0.,4.8,0.,4.8,,0,0.,4.8,0.,4.8
1981-08-28 21:15:18.970 ,7,0,,0,0.,4.8,0.,4.8,,0,0.,4.8,0.,4.8
1981-08-28 21:15:23.770 ,7,0,,0,2.,4.8,0.,4.8,,0,0.,4.8,0.,4.8
1981-08-28 21:15:28.580 ,7,0,,0,8.,4.8,0.,4.8,,0,0.,4.8,0.,4.8
1981-08-28 21:15:33.380 ,7,0,,0,12.,4.8,0.,4.8,,0,0.,4.8,0.,4.8
1981-08-28 21:15:38.170 ,7,0,,0,12.,4.8,0.,4.8,,0,0.,4.8,0.,4.8
1981-08-28 21:15:42.970 ,7,0,,0,12.,4.8,0.,4.8,,0,0.,4.8,0.,4.8
1981-08-28 21:15:47.770 ,7,0,,0,9.,4.8,0.,4.8,,0,0.,4.8,0.,4.8
1981-08-28 21:15:52.580 ,7,0,,0,0.,4.8,0.,4.8,,0,0.,4.8,0.,4.8
1981-08-28 21:15:57.380 ,7,0,,0,0.,4.8,0.,4.8,,0,0.,4.8,0.,4.8
1981-08-28 21:16:02.170 ,6,0,,0,0.,4.8,0.,4.8,,0,0.,4.8,0.,4.8
1981-08-28 21:16:06.970 ,6,0,,0,0.,4.8,0.,4.8,,0,0.,4.8,0.,4.8
1981-08-28 21:16:11.780 ,6,0,,0,0.,4.8,0.,4.8,,0,0.,4.8,0.,4.8
1981-08-28 21:16:16.580 ,6,0,,0,0.,4.8,0.,4.8,,0,0.,4.8,0.,4.8
1981-08-28 21:16:21.380 ,6,0,,0,1.,4.8,0.,4.8,,0,0.,4.8,0.,4.8
1981-08-28 21:16:26.170 ,6,0,,0,1.,4.8,0.,4.8,,0,0.,4.8,0.,4.8
1981-08-28 21:16:30.970 ,6,0,,0,0.,4.8,0.,4.8,,0,0.,4.8,0.,4.8
1981-08-28 21:16:35.780 ,6,0,,0,0.,4.8,0.,4.8,,0,0.,4.8,0.,4.8
1981-08-28 21:16:40.580 ,6,0,,0,0.,4.8,0.,4.8,,0,0.,4.8,0.,4.8
1981-08-28 21:16:45.380 ,6,0,,0,0.,4.8,0.,4.8,,0,0.,4.8,0.,4.8
1981-08-28 21:16:50.170 ,5,0,,0,0.,4.8,0.,4.8,,0,0.,4.8,0.,4.8
1981-08-28 21:16:54.970 ,5,0,,0,0.,4.8,0.,4.8,,0,0.,4.8,0.,4.8
1981-08-28 21:16:59.780 ,5,0,,0,0.,4.8,0.,4.8,,0,0.,4.8,0.,4.8
1981-08-28 21:17:04.570 ,5,0,,0,0.,4.8,0.,4.8,,0,0.,4.8,0.,4.8
1981-08-28 21:17:09.380 ,5,0,,0,1.,4.8,0.,4.8,,0,0.,4.8,0.,4.8
1981-08-28 21:17:14.180 ,5,0,,0,0.,4.8,0.,4.8,,0,0.,4.8,0.,4.8
1981-08-28 21:17:18.980 ,5,0,,0,1.,4.8,0.,4.8,,0,0.,4.8,0.,4.8
1981-08-28 21:17:23.780 ,5,0,,0,0.,4.8,0.,4.8,,0,0.,4.8,0.,4.8
1981-08-28 21:17:28.580 ,5,0,,0,0.,4.8,0.,4.8,,0,0.,4.8,0.,4.8
1981-08-28 21:17:33.380 ,5,0,,0,0.,4.8,0.,4.8,,0,0.,4.8,0.,4.8
1981-08-28 21:17:38.180 ,4,0,,0,0.,4.8,0.,4.8,,0,0.,4.8,0.,4.8
1981-08-28 21:17:42.980 ,4,0,,0,0.,4.8,0.,4.8,,0,0.,4.8,0.,4.8
1981-08-28 21:17:47.780 ,4,0,,0,0.,4.8,0.,4.8,,0,0.,4.8,0.,4.8
1981-08-28 21:17:52.580 ,4,0,,0,0.,4.8,0.,4.8,,0,0.,4.8,0.,4.8
1981-08-28 21:17:57.380 ,4,0,,0,2.,4.8,0.,4.8,,0,0.,4.8,0.,4.8
1981-08-28 21:18:02.180 ,4,0,,0,3.,4.8,0.,4.8,,0,0.,4.8,0.,4.8
1981-08-28 21:18:06.980 ,4,0,,0,1.,4.8,0.,4.8,,0,0.,4.8,0.,4.8
1981-08-28 21:18:11.780 ,4,0,,0,0.,4.8,0.,4.8,,0,0.,4.8,0.,4.8
1981-08-28 21:18:16.580 ,4,0,,0,0.,4.8,0.,4.8,,0,0.,4.8,0.,4.8
1981-08-28 21:18:21.380 ,4,0,,0,0.,4.8,0.,4.8,,0,0.,4.8,0.,4.8
1981-08-28 21:18:26.180 ,3,0,,0,0.,4.8,0.,4.8,,0,0.,4.8,0.,4.8
1981-08-28 21:18:30.980 ,3,0,,0,0.,4.8,0.,4.8,,0,0.,4.8,0.,4.8
1981-08-28 21:18:35.780 ,3,0,,0,1.,4.8,0.,4.8,,0,0.,4.8,0.,4.8
1981-08-28 21:18:40.580 ,3,0,,0,0.,4.8,0.,4.8,,0,0.,4.8,0.,4.8
1981-08-28 21:18:45.380 ,3,0,,0,2.,4.8,0.,4.8,,0,0.,4.8,0.,4.8
1981-08-28 21:18:50.180 ,3,0,,0,0.,4.8,0.,4.8,,0,0.,4.8,0.,4.8
1981-08-28 21:18:54.980 ,3,0,,0,0.,4.8,0.,4.8,,0,0.,4.8,0.,4.8
1981-08-28 21:18:59.780 ,3,0,,0,1.,4.8,0.,4.8,,0,0.,4.8,0.,4.8
1981-08-28 21:19:04.580 ,3,0,,0,0.,4.8,0.,4.8,,0,0.,4.8,0.,4.8
1981-08-28 21:19:09.380 ,3,0,,0,0.,4.8,0.,4.8,,0,0.,4.8,0.,4.8
1981-08-28 21:19:14.180 ,2,0,,0,0.,4.8,0.,4.8,,0,0.,4.8,0.,4.8
1981-08-28 21:19:18.980 ,2,0,,0,0.,4.8,0.,4.8,,0,0.,4.8,0.,4.8
1981-08-28 21:19:23.780 ,2,0,,0,0.,4.8,0.,4.8,,0,0.,4.8,0.,4.8
1981-08-28 21:19:28.580 ,2,0,,0,0.,4.8,0.,4.8,,0,0.,4.8,0.,4.8
1981-08-28 21:19:33.380 ,2,0,,0,1.,4.8,0.,4.8,,0,0.,4.8,0.,4.8
1981-08-28 21:19:38.180 ,2,0,,0,1.,4.8,0.,4.8,,0,0.,4.8,0.,4.8
1981-08-28 21:19:42.980 ,2,0,,0,0.,4.8,0.,4.8,,0,0.,4.8,0.,4.8
1981-08-28 21:19:47.780 ,2,0,,0,1.,4.8,0.,4.8,,0,0.,4.8,0.,4.8
1981-08-28 21:19:52.580 ,2,0,,0,0.,4.8,0.,4.8,,0,0.,4.8,0.,4.8
1981-08-28 21:19:57.380 ,2,0,,0,1.,4.8,0.,4.8,,0,0.,4.8,0.,4.8
1981-08-28 21:20:02.180 ,1,0,,0,0.,4.8,0.,4.8,,0,0.,4.8,0.,4.8
1981-08-28 21:20:06.980 ,1,0,,0,0.,4.8,0.,4.8,,0,0.,4.8,0.,4.8
1981-08-28 21:20:11.780 ,1,0,,0,0.,4.8,0.,4.8,,0,0.,4.8,0.,4.8
1981-08-28 21:20:16.580 ,1,0,,0,0.,4.8,0.,4.8,,0,0.,4.8,0.,4.8
1981-08-28 21:20:21.380 ,1,0,,0,0.,4.8,0.,4.8,,0,1.,4.8,0.,4.8
1981-08-28 21:20:26.180 ,1,0,,0,0.,4.8,0.,4.8,,0,0.,4.8,0.,4.8
1981-08-28 21:20:30.980 ,1,0,,0,0.,4.8,0.,4.8,,0,0.,4.8,0.,4.8
1981-08-28 21:20:35.780 ,1,0,,0,0.,4.8,0.,4.8,,0,0.,4.8,0.,4.8
1981-08-28 21:20:40.580 ,1,0,,0,0.,4.8,0.,4.8,,0,0.,4.8,0.,4.8
1981-08-28 21:20:45.380 ,1,0,,0,0.,4.8,0.,4.8,,0,0.,4.8,0.,4.8
1981-08-28 21:20:50.180 ,0,0,,0,0.,4.8,0.,4.8,,0,0.,4.8,0.,4.8
1981-08-28 21:20:54.980 ,0,0,,0,0.,4.8,0.,4.8,,0,0.,4.8,0.,4.8
1981-08-28 21:20:59.780 ,0,0,,0,0.,4.8,0.,4.8,,0,0.,4.8,0.,4.8
1981-08-28 21:21:04.580 ,0,0,,0,0.,4.8,0.,4.8,,0,0.,4.8,0.,4.8
1981-08-28 21:21:09.380 ,0,0,,0,0.,4.8,0.,4.8,,0,0.,4.8,0.,4.8
1981-08-28 21:21:14.180 ,0,0,,0,0.,4.8,0.,4.8,,0,0.,4.8,0.,4.8
1981-08-28 21:21:18.980 ,0,0,,0,1.,4.8,0.,4.8,,0,0.,4.8,0.,4.8
1981-08-28 21:21:23.780 ,0,0,,0,0.,4.8,0.,4.8,,0,0.,4.8,0.,4.8
1981-08-28 21:21:28.580 ,0,0,,0,0.,4.8,0.,4.8,,0,0.,4.8,0.,4.8
1981-08-28 21:21:33.380 ,0,0,,0,0.,4.8,0.,4.8,,0,0.,4.8,0.,4.8
1981-08-28 21:21:38.180 ,0,0,,0,0.,4.8,0.,4.8,,0,0.,4.8,0.,4.8
1981-08-28 21:21:42.980 ,0,0,,0,0.,4.8,0.,4.8,,0,0.,4.8,0.,4.8
1981-08-28 21:21:47.780 ,0,0,,0,0.,4.8,0.,4.8,,0,0.,4.8,0.,4.8
1981-08-28 21:21:52.580 ,0,0,,0,0.,4.8,0.,4.8,,0,0.,4.8,0.,4.8
1981-08-28 21:21:57.380 ,0,0,,0,1.,4.8,0.,4.8,,0,0.,4.8,0.,4.8
1981-08-28 21:22:02.180 ,0,0,,0,0.,4.8,0.,4.8,,0,0.,4.8,0.,4.8
1981-08-28 21:22:06.980 ,0,0,,0,1.,4.8,0.,4.8,,0,0.,4.8,0.,4.8
1981-08-28 21:22:11.780 ,0,0,,0,0.,4.8,0.,4.8,,0,0.,4.8,0.,4.8
1981-08-28 21:22:16.580 ,0,0,,0,0.,4.8,0.,4.8,,0,0.,4.8,0.,4.8
1981-08-28 21:22:21.380 ,0,0,,0,0.,4.8,0.,4.8,,0,0.,4.8,0.,4.8
1981-08-28 21:22:26.180 ,1,0,,0,0.,4.8,0.,4.8,,0,0.,4.8,0.,4.8
1981-08-28 21:22:30.980 ,1,0,,0,0.,4.8,0.,4.8,,0,0.,4.8,0.,4.8
1981-08-28 21:22:35.780 ,1,0,,0,0.,4.8,0.,4.8,,0,0.,4.8,0.,4.8
1981-08-28 21:22:40.580 ,1,0,,0,0.,4.8,0.,4.8,,0,0.,4.8,0.,4.8
1981-08-28 21:22:45.380 ,1,0,,0,2.,4.8,0.,4.8,,0,0.,4.8,0.,4.8
1981-08-28 21:22:50.180 ,1,0,,0,0.,4.8,0.,4.8,,0,0.,4.8,0.,4.8
1981-08-28 21:22:54.980 ,1,0,,0,0.,4.8,0.,4.8,,0,0.,4.8,0.,4.8
1981-08-28 21:22:59.780 ,1,0,,0,0.,4.8,0.,4.8,,0,0.,4.8,0.,4.8
1981-08-28 21:23:04.580 ,1,0,,0,0.,4.8,0.,4.8,,0,0.,4.8,0.,4.8
1981-08-28 21:23:09.380 ,1,0,,0,0.,4.8,0.,4.8,,0,0.,4.8,0.,4.8
1981-08-28 21:23:14.180 ,2,0,,0,0.,4.8,0.,4.8,,0,0.,4.8,0.,4.8
1981-08-28 21:23:18.980 ,2,0,,0,0.,4.8,0.,4.8,,0,0.,4.8,0.,4.8
1981-08-28 21:23:23.780 ,2,0,,0,0.,4.8,0.,4.8,,0,0.,4.8,0.,4.8
1981-08-28 21:23:28.580 ,2,0,,0,0.,4.8,0.,4.8,,0,0.,4.8,0.,4.8
1981-08-28 21:23:33.380 ,2,0,,0,0.,4.8,0.,4.8,,0,0.,4.8,0.,4.8
1981-08-28 21:23:38.180 ,2,0,,0,1.,4.8,0.,4.8,,0,0.,4.8,0.,4.8
1981-08-28 21:23:42.980 ,2,0,,0,2.,4.8,0.,4.8,,0,0.,4.8,0.,4.8
1981-08-28 21:23:47.780 ,2,0,,0,0.,4.8,0.,4.8,,0,0.,4.8,0.,4.8
1981-08-28 21:23:52.580 ,2,0,,0,0.,4.8,0.,4.8,,0,0.,4.8,0.,4.8
1981-08-28 21:23:57.380 ,2,0,,0,0.,4.8,0.,4.8,,0,0.,4.8,0.,4.8
1981-08-28 21:24:02.180 ,3,0,,0,0.,4.8,0.,4.8,,0,0.,4.8,0.,4.8
1981-08-28 21:24:06.980 ,3,0,,0,0.,4.8,0.,4.8,,0,1.,4.8,0.,4.8
1981-08-28 21:24:11.780 ,3,0,,0,0.,4.8,0.,4.8,,0,0.,4.8,0.,4.8
1981-08-28 21:24:16.580 ,3,0,,0,2.,4.8,0.,4.8,,0,0.,4.8,0.,4.8
1981-08-28 21:24:21.380 ,3,0,,0,1.,4.8,0.,4.8,,0,0.,4.8,0.,4.8
1981-08-28 21:24:26.180 ,3,0,,0,0.,4.8,0.,4.8,,0,0.,4.8,0.,4.8
1981-08-28 21:24:30.980 ,3,0,,0,1.,4.8,0.,4.8,,0,0.,4.8,0.,4.8
1981-08-28 21:24:35.780 ,3,0,,0,0.,4.8,0.,4.8,,0,0.,4.8,0.,4.8
1981-08-28 21:24:40.580 ,3,0,,0,0.,4.8,0.,4.8,,0,0.,4.8,0.,4.8
1981-08-28 21:24:45.380 ,3,0,,0,0.,4.8,0.,4.8,,0,0.,4.8,0.,4.8
1981-08-28 21:24:50.180 ,4,0,,0,0.,4.8,0.,4.8,,0,0.,4.8,0.,4.8
1981-08-28 21:24:54.980 ,4,0,,0,0.,4.8,0.,4.8,,0,0.,4.8,0.,4.8
1981-08-28 21:24:59.780 ,4,0,,0,0.,4.8,0.,4.8,,0,0.,4.8,0.,4.8
1981-08-28 21:25:04.580 ,4,0,,0,1.,4.8,0.,4.8,,0,0.,4.8,0.,4.8
1981-08-28 21:25:09.380 ,4,0,,0,2.,4.8,0.,4.8,,0,0.,4.8,0.,4.8
1981-08-28 21:25:14.180 ,4,0,,0,3.,4.8,0.,4.8,,0,0.,4.8,0.,4.8
1981-08-28 21:25:18.980 ,4,0,,0,0.,4.8,0.,4.8,,0,0.,4.8,0.,4.8
1981-08-28 21:25:23.780 ,4,0,,0,1.,4.8,0.,4.8,,0,0.,4.8,0.,4.8
1981-08-28 21:25:28.580 ,4,0,,0,0.,4.8,0.,4.8,,0,0.,4.8,0.,4.8
1981-08-28 21:25:33.380 ,4,0,,0,0.,4.8,0.,4.8,,0,0.,4.8,0.,4.8
1981-08-28 21:25:38.180 ,5,0,,0,0.,4.8,0.,4.8,,0,0.,4.8,0.,4.8
1981-08-28 21:25:42.980 ,5,0,,0,0.,4.8,0.,4.8,,0,0.,4.8,0.,4.8
1981-08-28 21:25:47.780 ,5,0,,0,0.,4.8,0.,4.8,,0,0.,4.8,0.,4.8
1981-08-28 21:25:52.580 ,5,0,,0,3.,4.8,0.,4.8,,0,0.,4.8,0.,4.8
1981-08-28 21:25:57.380 ,5,0,,0,1.,4.8,0.,4.8,,0,0.,4.8,0.,4.8
1981-08-28 21:26:02.180 ,5,0,,0,2.,4.8,0.,4.8,,0,0.,4.8,0.,4.8
1981-08-28 21:26:06.980 ,5,0,,0,2.,4.8,0.,4.8,,0,0.,4.8,0.,4.8
1981-08-28 21:26:11.780 ,5,0,,0,1.,4.8,0.,4.8,,0,0.,4.8,0.,4.8
1981-08-28 21:26:16.580 ,5,0,,0,0.,4.8,0.,4.8,,0,0.,4.8,0.,4.8
1981-08-28 21:26:21.380 ,5,0,,0,0.,4.8,0.,4.8,,0,0.,4.8,0.,4.8
1981-08-28 21:26:26.170 ,6,0,,0,0.,4.8,0.,4.8,,0,0.,4.8,0.,4.8
1981-08-28 21:26:30.970 ,6,0,,0,0.,4.8,0.,4.8,,0,0.,4.8,0.,4.8
1981-08-28 21:26:35.770 ,6,0,,0,0.,4.8,0.,4.8,,0,0.,4.8,0.,4.8
1981-08-28 21:26:40.570 ,6,0,,0,0.,4.8,0.,4.8,,0,0.,4.8,0.,4.8
1981-08-28 21:26:45.370 ,6,0,,0,2.,4.8,0.,4.8,,0,0.,4.8,0.,4.8
1981-08-28 21:26:50.170 ,6,0,,0,0.,4.8,0.,4.8,,0,0.,4.8,0.,4.8
1981-08-28 21:26:54.970 ,6,0,,0,0.,4.8,0.,4.8,,0,0.,4.8,0.,4.8
1981-08-28 21:26:59.770 ,6,0,,0,0.,4.8,0.,4.8,,0,0.,4.8,0.,4.8
1981-08-28 21:27:04.570 ,6,0,,0,0.,4.8,0.,4.8,,0,0.,4.8,0.,4.8
1981-08-28 21:27:09.370 ,6,0,,0,0.,4.8,0.,4.8,,0,0.,4.8,0.,4.8
1981-08-28 21:27:14.170 ,7,0,,0,0.,4.8,0.,4.8,,0,0.,4.8,0.,4.8
1981-08-28 21:27:18.970 ,7,0,,0,0.,4.8,0.,4.8,,0,0.,4.8,0.,4.8
1981-08-28 21:27:23.770 ,7,0,,0,0.,4.8,0.,4.8,,0,0.,4.8,0.,4.8
1981-08-28 21:27:28.570 ,7,0,,0,11.,4.8,0.,4.8,,0,0.,4.8,0.,4.8
1981-08-28 21:27:33.370 ,7,0,,0,9.,4.8,0.,4.8,,0,0.,4.8,0.,4.8
1981-08-28 21:27:38.170 ,7,0,,0,13.,4.8,0.,4.8,,0,0.,4.8,0.,4.8
1981-08-28 21:27:42.970 ,7,0,,0,10.,4.8,0.,4.8,,0,0.,4.8,0.,4.8
1981-08-28 21:27:47.770 ,7,0,,0,11.,4.8,0.,4.8,,0,0.,4.8,0.,4.8
1981-08-28 21:27:52.570 ,7,0,,0,0.,4.8,0.,4.8,,0,0.,4.8,0.,4.8
1981-08-28 21:27:57.370 ,7,0,,0,0.,4.8,0.,4.8,,0,0.,4.8,0.,4.8
1981-08-28 21:28:02.170 ,7,0,,0,0.,4.8,0.,4.8,,0,0.,4.8,0.,4.8
1981-08-28 21:28:06.970 ,7,0,,0,0.,4.8,0.,4.8,,0,0.,4.8,0.,4.8
1981-08-28 21:28:11.770 ,7,0,,0,0.,4.8,0.,4.8,,0,0.,4.8,0.,4.8
1981-08-28 21:28:16.570 ,7,0,,0,3.,4.8,0.,4.8,,0,0.,4.8,0.,4.8
1981-08-28 21:28:21.370 ,7,0,,0,10.,4.8,0.,4.8,,0,0.,4.8,0.,4.8
1981-08-28 21:28:26.170 ,6,0,,0,14.,4.8,0.,4.8,,0,0.,4.8,0.,4.8
1981-08-28 21:28:30.970 ,6,0,,0,9.,4.8,0.,4.8,,0,0.,4.8,0.,4.8
1981-08-28 21:28:35.770 ,6,0,,0,3.,4.8,0.,4.8,,0,0.,4.8,0.,4.8
1981-08-28 21:28:40.570 ,6,0,,0,0.,4.8,0.,4.8,,0,0.,4.8,0.,4.8
1981-08-28 21:28:45.370 ,6,0,,0,0.,4.8,0.,4.8,,0,0.,4.8,0.,4.8
1981-08-28 21:28:50.170 ,5,0,,0,0.,4.8,0.,4.8,,0,0.,4.8,0.,4.8
1981-08-28 21:28:54.970 ,5,0,,0,0.,4.8,0.,4.8,,0,0.,4.8,0.,4.8
1981-08-28 21:28:59.770 ,5,0,,0,0.,4.8,0.,4.8,,0,0.,4.8,0.,4.8
1981-08-28 21:29:04.570 ,5,0,,0,2.,4.8,0.,4.8,,0,0.,4.8,0.,4.8
1981-08-28 21:29:09.370 ,5,0,,0,0.,4.8,0.,4.8,,0,0.,4.8,0.,4.8
1981-08-28 21:29:14.170 ,4,0,,0,1.,4.8,0.,4.8,,0,0.,4.8,0.,4.8
1981-08-28 21:29:18.970 ,4,0,,0,0.,4.8,0.,4.8,,0,0.,4.8,0.,4.8
1981-08-28 21:29:23.770 ,4,0,,0,0.,4.8,0.,4.8,,0,0.,4.8,0.,4.8
1981-08-28 21:29:28.570 ,4,0,,0,0.,4.8,0.,4.8,,0,0.,4.8,0.,4.8
1981-08-28 21:29:33.370 ,4,0,,0,0.,4.8,0.,4.8,,0,0.,4.8,0.,4.8
1981-08-28 21:29:38.170 ,3,0,,0,0.,4.8,0.,4.8,,0,0.,4.8,0.,4.8
1981-08-28 21:29:42.970 ,3,0,,0,0.,4.8,0.,4.8,,0,0.,4.8,0.,4.8
1981-08-28 21:29:47.770 ,3,0,,0,0.,4.8,0.,4.8,,0,0.,4.8,0.,4.8
1981-08-28 21:29:52.570 ,3,0,,0,0.,4.8,0.,4.8,,0,0.,4.8,0.,4.8
1981-08-28 21:29:57.370 ,3,0,,0,0.,4.8,0.,4.8,,0,0.,4.8,0.,4.8
1981-08-28 21:30:02.170 ,2,0,,0,2.,4.8,0.,4.8,,0,0.,4.8,0.,4.8
1981-08-28 21:30:06.970 ,2,0,,0,2.,4.8,0.,4.8,,0,0.,4.8,0.,4.8
1981-08-28 21:30:11.770 ,2,0,,0,0.,4.8,0.,4.8,,0,0.,4.8,0.,4.8